DAL2682 KDTW-KBNA

Flight info

Callsign DAL2682
Flight time N/A
Altitude 28000
Route BARII3 SINKR JUDDI ULTRA RYYMN3
Aircraft A320/M-SDE3FGHIRWY/LB1

Departure

Time 2026-05-06 17:56
Airport Detroit Metropolitan Wayne County Airport (KDTW)

Arrival

Time N/A
Airport Nashville International Airport (KBNA)
Time Latitude Longitude Altitude Speed Heading
2026-05-06 17:19 42.20307 -83.36122 661 ft 0 kts 298°
2026-05-06 17:47 42.20298 -83.36098 660 ft 4 kts 290°
2026-05-06 17:48 42.20294 -83.36065 660 ft 4 kts 247°
2026-05-06 17:48 42.20302 -83.36051 660 ft 0 kts 208°
2026-05-06 17:50 42.20300 -83.36053 660 ft 1 kts 208°
2026-05-06 17:50 42.20285 -83.36064 660 ft 4 kts 208°
2026-05-06 17:51 42.20246 -83.36092 660 ft 8 kts 208°
2026-05-06 17:51 42.20194 -83.36130 660 ft 10 kts 208°
2026-05-06 17:51 42.20126 -83.36161 660 ft 11 kts 184°
2026-05-06 17:51 42.20069 -83.36102 660 ft 12 kts 98°
2026-05-06 17:52 42.20072 -83.35982 660 ft 14 kts 89°
2026-05-06 17:52 42.20073 -83.35845 660 ft 15 kts 89°
2026-05-06 17:52 42.20076 -83.35692 660 ft 17 kts 88°
2026-05-06 17:52 42.20079 -83.35522 660 ft 19 kts 88°
2026-05-06 17:53 42.20082 -83.35349 660 ft 15 kts 90°
2026-05-06 17:53 42.20119 -83.35248 660 ft 12 kts 28°
2026-05-06 17:53 42.20204 -83.35187 660 ft 14 kts 28°
2026-05-06 17:53 42.20291 -83.35122 660 ft 14 kts 29°
2026-05-06 17:54 42.20380 -83.35056 660 ft 15 kts 28°
2026-05-06 17:54 42.20465 -83.35004 660 ft 12 kts
2026-05-06 17:54 42.20548 -83.35012 660 ft 12 kts 19°
2026-05-06 17:54 42.20622 -83.34962 660 ft 12 kts 28°
2026-05-06 17:55 42.20671 -83.34927 660 ft 11 kts 20°
2026-05-06 17:55 42.20734 -83.34961 660 ft 11 kts 305°
2026-05-06 17:55 42.20772 -83.35050 660 ft 11 kts 298°
2026-05-06 17:55 42.20828 -83.35085 660 ft 10 kts 15°
2026-05-06 17:56 42.21031 -83.34942 660 ft 70 kts 29°
2026-05-06 17:56 42.21680 -83.34460 661 ft 139 kts 28°
2026-05-06 17:56 42.22670 -83.33717 893 ft 168 kts 26°
2026-05-06 17:56 42.23667 -83.32934 1664 ft 166 kts 27°
2026-05-06 17:57 42.24287 -83.32355 2165 ft 166 kts 36°
2026-05-06 17:57 42.24653 -83.31868 2485 ft 170 kts 45°
2026-05-06 17:57 42.25124 -83.30889 2836 ft 184 kts 62°
2026-05-06 17:57 42.25630 -83.29139 3268 ft 197 kts 64°
2026-05-06 17:58 42.26202 -83.27425 3687 ft 206 kts 59°
2026-05-06 17:58 42.26940 -83.25551 4083 ft 223 kts 57°
2026-05-06 17:58 42.27608 -83.23634 4577 ft 238 kts 69°
2026-05-06 17:58 42.27796 -83.21382 5087 ft 255 kts 97°
2026-05-06 17:59 42.27086 -83.19100 5653 ft 268 kts 125°
2026-05-06 17:59 42.25919 -83.16990 6312 ft 279 kts 127°
2026-05-06 17:59 42.24783 -83.14764 6942 ft 288 kts 123°
2026-05-06 17:59 42.23754 -83.12426 7721 ft 291 kts 120°
2026-05-06 18:00 42.22583 -83.10098 8460 ft 295 kts 136°
2026-05-06 18:00 42.20860 -83.08555 9179 ft 294 kts 159°
2026-05-06 18:00 42.18966 -83.07770 9882 ft 291 kts 178°
2026-05-06 18:00 42.16977 -83.07966 10554 ft 286 kts 202°
2026-05-06 18:01 42.15178 -83.09156 10958 ft 295 kts 216°
2026-05-06 18:01 42.13413 -83.10746 11217 ft 314 kts 218°
2026-05-06 18:01 42.11508 -83.12512 11533 ft 330 kts 218°
2026-05-06 18:01 42.09579 -83.14227 11832 ft 345 kts 216°
2026-05-06 18:02 42.07507 -83.15969 12209 ft 356 kts 215°
2026-05-06 18:02 42.05367 -83.17708 12809 ft 359 kts 215°
2026-05-06 18:02 42.03973 -83.18836 13198 ft 361 kts 215°
2026-05-06 18:02 42.01526 -83.20832 13864 ft 363 kts 215°
2026-05-06 18:03 41.99379 -83.22604 14437 ft 364 kts 216°
2026-05-06 18:03 41.96704 -83.24836 15119 ft 367 kts 216°
2026-05-06 18:03 41.94954 -83.26293 15549 ft 369 kts 216°
2026-05-06 18:03 41.92656 -83.28195 16097 ft 371 kts 216°
2026-05-06 18:04 41.90505 -83.29966 16591 ft 373 kts 216°
2026-05-06 18:04 41.88286 -83.31791 17083 ft 375 kts 216°
2026-05-06 18:04 41.85993 -83.33679 17573 ft 376 kts 216°
2026-05-06 18:04 41.83695 -83.35572 18047 ft 379 kts 216°
2026-05-06 18:05 41.81454 -83.37419 18508 ft 380 kts 216°
2026-05-06 18:05 41.79091 -83.39362 18970 ft 382 kts 216°
2026-05-06 18:05 41.76817 -83.41229 19390 ft 384 kts 216°
2026-05-06 18:05 41.74419 -83.43197 19828 ft 386 kts 216°
2026-05-06 18:06 41.72121 -83.45082 20242 ft 388 kts 217°
2026-05-06 18:06 41.70552 -83.46368 20514 ft 389 kts 217°
2026-05-06 18:06 41.67450 -83.48907 21037 ft 391 kts 217°
2026-05-06 18:06 41.65119 -83.50814 21415 ft 393 kts 217°
2026-05-06 18:07 41.62774 -83.52729 21774 ft 395 kts 217°
2026-05-06 18:07 41.60414 -83.54657 22132 ft 396 kts 217°
2026-05-06 18:07 41.58037 -83.56597 22480 ft 398 kts 217°
2026-05-06 18:07 41.55670 -83.58525 22815 ft 399 kts 217°
2026-05-06 18:08 41.54048 -83.59845 23029 ft 401 kts 217°
2026-05-06 18:08 41.51644 -83.61801 23353 ft 402 kts 217°
2026-05-06 18:08 41.49262 -83.63736 23668 ft 404 kts 217°
2026-05-06 18:08 41.46867 -83.65679 23954 ft 406 kts 217°
2026-05-06 18:09 41.44437 -83.67652 24253 ft 407 kts 217°
2026-05-06 18:09 41.41961 -83.69660 24558 ft 408 kts 217°
2026-05-06 18:09 41.39545 -83.71618 24850 ft 409 kts 217°
2026-05-06 18:09 41.37094 -83.73602 25139 ft 410 kts 217°
2026-05-06 18:10 41.34622 -83.75601 25415 ft 411 kts 218°
2026-05-06 18:10 41.32082 -83.77655 25712 ft 412 kts 218°
2026-05-06 18:10 41.29538 -83.79711 26121 ft 409 kts 218°
2026-05-06 18:10 41.27160 -83.81626 26516 ft 407 kts 218°
2026-05-06 18:11 41.24678 -83.83622 26896 ft 406 kts 218°
2026-05-06 18:11 41.23067 -83.84918 27140 ft 404 kts 218°
2026-05-06 18:11 41.19869 -83.87488 27663 ft 401 kts 219°
2026-05-06 18:11 41.17486 -83.89405 27998 ft 400 kts 219°
2026-05-06 18:12 41.12682 -83.93270 28018 ft 403 kts 219°
2026-05-06 18:12 41.07771 -83.97191 27993 ft 403 kts 219°
2026-05-06 18:13 41.03009 -84.01002 28020 ft 401 kts 219°
2026-05-06 18:13 40.98204 -84.04849 28018 ft 401 kts 219°
2026-05-06 18:14 40.93415 -84.08668 28024 ft 403 kts 219°
2026-05-06 18:14 40.88561 -84.12441 28049 ft 406 kts 216°
2026-05-06 18:15 40.83443 -84.15602 28064 ft 407 kts 213°
2026-05-06 18:15 40.78224 -84.18673 28031 ft 406 kts 214°
2026-05-06 18:16 40.73067 -84.21777 27993 ft 405 kts 214°
2026-05-06 18:16 40.70499 -84.23332 27953 ft 405 kts 214°
2026-05-06 18:16 40.67898 -84.24902 27979 ft 404 kts 214°
2026-05-06 18:17 40.66144 -84.25955 27979 ft 404 kts 214°
2026-05-06 18:17 40.62743 -84.27992 27966 ft 404 kts 214°
2026-05-06 18:17 40.60187 -84.29525 27975 ft 404 kts 214°
2026-05-06 18:17 40.57630 -84.31053 27945 ft 404 kts 214°
2026-05-06 18:18 40.55074 -84.32582 27970 ft 404 kts 214°
2026-05-06 18:18 40.52510 -84.34115 27965 ft 404 kts 214°
2026-05-06 18:18 40.50792 -84.35141 27968 ft 404 kts 214°
2026-05-06 18:18 40.48223 -84.36676 27973 ft 403 kts 215°
2026-05-06 18:19 40.45772 -84.38362 27956 ft 397 kts 220°
2026-05-06 18:19 40.43525 -84.40449 27973 ft 388 kts 227°
2026-05-06 18:19 40.41524 -84.42860 27968 ft 385 kts 231°
2026-05-06 18:19 40.39619 -84.45338 28003 ft 384 kts 232°
2026-05-06 18:20 40.35819 -84.50263 28005 ft 385 kts 231°
2026-05-06 18:20 40.31916 -84.55117 28055 ft 385 kts 231°
2026-05-06 18:21 40.28003 -84.59980 28056 ft 383 kts 231°
2026-05-06 18:21 40.24144 -84.64814 28000 ft 384 kts 231°
2026-05-06 18:22 40.22185 -84.67257 27984 ft 384 kts 231°
2026-05-06 18:22 40.20249 -84.69669 27962 ft 384 kts 231°
2026-05-06 18:22 40.18309 -84.72080 27963 ft 384 kts 231°
2026-05-06 18:22 40.16372 -84.74490 27970 ft 385 kts 231°
2026-05-06 18:23 40.14433 -84.76903 27970 ft 385 kts 230°
2026-05-06 18:23 40.12486 -84.79319 27969 ft 385 kts 231°
2026-05-06 18:23 40.10541 -84.81727 27975 ft 386 kts 231°
2026-05-06 18:23 40.08588 -84.84144 27971 ft 386 kts 230°
2026-05-06 18:24 40.06634 -84.86561 27966 ft 387 kts 231°
2026-05-06 18:24 40.04684 -84.88976 27980 ft 387 kts 231°
2026-05-06 18:24 40.00785 -84.93797 28029 ft 386 kts 230°
2026-05-06 18:25 39.96884 -84.98596 28073 ft 385 kts 231°
2026-05-06 18:25 39.92995 -85.03396 28062 ft 384 kts 231°
2026-05-06 18:26 39.89110 -85.08173 28064 ft 384 kts 231°
2026-05-06 18:26 39.85225 -85.12948 28015 ft 384 kts 231°
2026-05-06 18:27 39.83279 -85.15335 27997 ft 383 kts 231°
2026-05-06 18:27 39.81285 -85.17774 27979 ft 384 kts 231°
2026-05-06 18:27 39.79364 -85.20119 27982 ft 384 kts 231°
2026-05-06 18:27 39.77375 -85.22547 27993 ft 383 kts 231°
2026-05-06 18:28 39.75452 -85.24902 27966 ft 384 kts 231°
2026-05-06 18:28 39.73504 -85.27284 27961 ft 384 kts 231°
2026-05-06 18:28 39.69573 -85.32078 27987 ft 384 kts 231°
2026-05-06 18:29 39.67636 -85.34439 27972 ft 384 kts 231°
2026-05-06 18:29 39.65686 -85.36811 27973 ft 384 kts 231°
2026-05-06 18:29 39.63734 -85.39188 27990 ft 384 kts 231°
2026-05-06 18:29 39.61792 -85.41549 27977 ft 384 kts 231°
2026-05-06 18:30 39.57863 -85.46308 27988 ft 384 kts 231°
2026-05-06 18:30 39.55910 -85.48676 27972 ft 385 kts 231°
2026-05-06 18:30 39.53954 -85.51046 27996 ft 384 kts 231°
2026-05-06 18:31 39.50048 -85.55773 28017 ft 384 kts 231°
2026-05-06 18:31 39.46114 -85.60525 28016 ft 384 kts 231°
2026-05-06 18:32 39.44158 -85.62888 28000 ft 384 kts 231°
2026-05-06 18:32 39.42203 -85.65249 27994 ft 384 kts 231°
2026-05-06 18:32 39.40195 -85.67672 27996 ft 384 kts 231°
2026-05-06 18:32 39.38237 -85.70035 27992 ft 385 kts 231°
2026-05-06 18:33 39.34313 -85.74733 28018 ft 384 kts 231°
2026-05-06 18:33 39.32348 -85.77085 28000 ft 385 kts 231°
2026-05-06 18:33 39.30388 -85.79437 27996 ft 385 kts 231°
2026-05-06 18:34 39.26473 -85.84138 27985 ft 385 kts 231°
2026-05-06 18:34 39.24511 -85.86492 27987 ft 385 kts 231°
2026-05-06 18:34 39.22545 -85.88840 27975 ft 385 kts 231°
2026-05-06 18:35 39.20575 -85.91186 27990 ft 385 kts 231°
2026-05-06 18:35 39.18608 -85.93533 27996 ft 385 kts 231°
2026-05-06 18:35 39.14677 -85.98222 28010 ft 386 kts 231°
2026-05-06 18:36 39.13371 -85.99779 27991 ft 386 kts 231°
2026-05-06 18:36 39.11397 -86.02125 27999 ft 386 kts 231°
2026-05-06 18:36 39.09428 -86.04470 27984 ft 385 kts 231°
2026-05-06 18:36 39.07435 -86.06838 28018 ft 385 kts 231°
2026-05-06 18:37 39.03526 -86.11472 28065 ft 384 kts 231°
2026-05-06 18:37 38.99518 -86.16220 28074 ft 383 kts 230°
2026-05-06 18:38 38.95598 -86.20861 28051 ft 383 kts 231°
2026-05-06 18:38 38.91677 -86.25497 28006 ft 383 kts 230°
2026-05-06 18:39 38.89718 -86.27808 27984 ft 383 kts 230°
2026-05-06 18:39 38.87748 -86.30129 27986 ft 383 kts 230°
2026-05-06 18:39 38.85782 -86.32446 27987 ft 384 kts 230°
2026-05-06 18:40 38.81842 -86.37082 27986 ft 385 kts 230°
2026-05-06 18:40 38.79866 -86.39403 27986 ft 385 kts 230°
2026-05-06 18:40 38.77831 -86.41720 27983 ft 389 kts 227°
2026-05-06 18:40 38.75544 -86.43731 27986 ft 400 kts 219°
2026-05-06 18:41 38.72958 -86.45206 27987 ft 415 kts 210°
2026-05-06 18:41 38.70154 -86.46222 28000 ft 421 kts 206°
2026-05-06 18:41 38.67302 -86.47111 28022 ft 422 kts 206°
2026-05-06 18:42 38.61691 -86.48895 28045 ft 412 kts 207°
2026-05-06 18:42 38.56169 -86.50875 28048 ft 411 kts 208°
2026-05-06 18:43 38.50493 -86.52873 28052 ft 413 kts 207°
2026-05-06 18:43 38.44901 -86.54777 28054 ft 413 kts 207°
2026-05-06 18:44 38.39330 -86.56701 28078 ft 415 kts 207°
2026-05-06 18:44 38.33669 -86.58656 28094 ft 416 kts 207°
2026-05-06 18:45 38.28087 -86.60570 28091 ft 413 kts 207°
2026-05-06 18:45 38.22516 -86.62481 28082 ft 410 kts 207°
2026-05-06 18:46 38.17023 -86.64367 28061 ft 408 kts 207°
2026-05-06 18:46 38.11514 -86.66253 28016 ft 406 kts 207°
2026-05-06 18:46 38.08778 -86.67189 27994 ft 406 kts 207°
2026-05-06 18:47 38.06051 -86.68122 27996 ft 406 kts 207°
2026-05-06 18:47 38.03316 -86.69058 27995 ft 406 kts 207°
2026-05-06 18:47 38.00586 -86.69991 27994 ft 407 kts 207°
2026-05-06 18:47 37.97841 -86.70927 27993 ft 408 kts 207°
2026-05-06 18:48 37.95091 -86.71863 27992 ft 409 kts 207°
2026-05-06 18:48 37.92336 -86.72801 27994 ft 410 kts 207°
2026-05-06 18:48 37.89579 -86.73740 27993 ft 412 kts 207°
2026-05-06 18:48 37.86809 -86.74681 27992 ft 413 kts 207°
2026-05-06 18:49 37.84955 -86.75309 27988 ft 413 kts 207°
2026-05-06 18:49 37.81245 -86.76567 27999 ft 414 kts 206°
2026-05-06 18:49 37.79367 -86.77203 28014 ft 414 kts 206°
2026-05-06 18:50 37.73838 -86.79074 28070 ft 412 kts 206°
2026-05-06 18:50 37.71063 -86.80003 27969 ft 400 kts 207°
2026-05-06 18:50 37.68408 -86.80888 27475 ft 391 kts 207°
2026-05-06 18:50 37.65783 -86.81779 26651 ft 389 kts 207°
2026-05-06 18:51 37.63170 -86.82677 25742 ft 390 kts 207°
2026-05-06 18:51 37.60545 -86.83575 24808 ft 391 kts 206°
2026-05-06 18:51 37.57907 -86.84468 23873 ft 393 kts 206°
2026-05-06 18:51 37.55260 -86.85355 23253 ft 393 kts 205°
2026-05-06 18:52 37.53511 -86.85940 23086 ft 394 kts 205°